Moody AFB, GA

1:17 AM EST on December 09, 2016 (GMT -0500)
Moody Air Force Base

Weather History for KVAD - August, 2013

Change the Weather History Date:

Saturday, August 17, 2013

  Actual Average Record
Temperature  
Mean Temperature 78 °F -  
Max Temperature 85 °F 88 °F 95 °F (1997)
Min Temperature 71 °F 71 °F 66 °F (2011)
Cooling Degree Days 12    
Growing Degree Days 28 (Base 50)    
Moisture  
Dew Point 73 °F    
Average Humidity 97    
Maximum Humidity 100    
Minimum Humidity 72    
Precipitation  
Precipitation 0.45 in - - ()
Sea Level Pressure  
Sea Level Pressure 30.06 in    
Wind  
Wind Speed 4 mph (ESE)    
Max Wind Speed 23 mph    
Max Gust Speed 29 mph    
Visibility 8 miles    
Events Fog , Rain , Thunderstorm    
Averages and records for this station are not official NWS values.
T = Trace of Precipitation, MM = Missing Value Source: NWS Daily Summary

Daily Weather History Graph

Daily Weather History Graph

Search for Another Location

Airport or City:

Trip Planner

Search our weather history database for the weather conditions in past years. The results will help you decide how hot, cold, wet, or windy it might be!

Date:

Astronomy

Aug. 17, 2013 Rise Set
Actual Time 7:00 AM EDT 8:12 PM EDT
Civil Twilight 6:34 AM EDT 8:38 PM EDT
Nautical Twilight 6:04 AM EDT 9:08 PM EDT
Astronomical Twilight 5:33 AM EDT 9:39 PM EDT
Moon 5:20 PM EDT (8/17) 3:09 AM EDT (8/17)
Length of Visible Light 14h 03m
Length of Day
13h 12m
Waxing Gibbous, 84% of the Moon is Illuminated
Aug 17
Waxing Gibbous
Aug 20
Full
Aug 28
Last Quarter
Sep 5
New
Sep 12
First Quarter

Hourly Weather History & Observations

Time (EDT) Temp. Heat Index Dew Point Humidity Pressure Visibility Wind Dir Wind Speed Gust Speed Precip Events Conditions
12:01 AM 73.4 °F - 73.4 °F 100% 30.04 in 10.0 mi East 4.6 mph - N/A   Scattered Clouds
12:25 AM 73.4 °F - 73.4 °F 100% 30.04 in 10.0 mi SSE 3.5 mph - N/A   Mostly Cloudy
12:29 AM 73.4 °F - 73.4 °F 100% 30.04 in 10.0 mi SSE 3.5 mph - N/A   Mostly Cloudy
12:58 AM 73.2 °F - 73.2 °F 100% 30.04 in 10.0 mi ESE 3.5 mph - 0.00 in   Overcast
1:16 AM 73.4 °F - 73.4 °F 100% 30.04 in 10.0 mi ESE 2.3 mph - N/A Rain Light Rain
1:26 AM 73.4 °F - 73.4 °F 100% 30.04 in 10.0 mi SSE 2.3 mph - N/A   Overcast
1:58 AM 73.4 °F - 73.4 °F 100% 30.04 in 10.0 mi South 3.5 mph - 0.00 in   Overcast
2:10 AM 73.4 °F - 73.4 °F 100% 30.03 in 8.0 mi South 3.5 mph - N/A   Overcast
2:14 AM 73.4 °F - 73.4 °F 100% 30.03 in 6.0 mi South 3.5 mph - N/A   Overcast
2:15 AM 73.4 °F - 73.4 °F 100% 30.03 in 6.0 mi SSE 3.5 mph - N/A Rain Light Rain
2:23 AM 73.4 °F - 73.4 °F 100% 30.04 in 8.0 mi South 4.6 mph - N/A Rain Light Rain
2:24 AM 73.4 °F - 73.4 °F 100% 30.04 in 9.0 mi South 4.6 mph - N/A   Overcast
2:26 AM 73.4 °F - 73.4 °F 100% 30.04 in 10.0 mi South 4.6 mph - N/A   Overcast
2:30 AM 73.4 °F - 73.4 °F 100% 30.04 in 10.0 mi South 3.5 mph - N/A   Overcast
2:32 AM 73.4 °F - 73.4 °F 100% 30.03 in 10.0 mi SSE 3.5 mph - N/A   Overcast
2:34 AM 73.4 °F - 73.4 °F 100% 30.03 in 10.0 mi South 3.5 mph - N/A   Overcast
2:58 AM 73.4 °F - 73.4 °F 100% 30.03 in 10.0 mi SSE 2.3 mph - 0.00 in   Mostly Cloudy
3:58 AM 73.2 °F - 73.2 °F 100% 30.02 in 10.0 mi Calm Calm - N/A   Mostly Cloudy
4:26 AM 73.4 °F - 73.4 °F 100% 30.02 in 10.0 mi ESE 2.3 mph - N/A   Mostly Cloudy
4:46 AM 73.4 °F - 73.4 °F 100% 30.02 in 10.0 mi ESE 2.3 mph - N/A   Overcast
4:58 AM 73.2 °F - 73.2 °F 100% 30.02 in 9.0 mi SE 2.3 mph - N/A   Overcast
5:02 AM 73.4 °F - 73.4 °F 100% 30.02 in 6.0 mi SE 3.5 mph - N/A   Overcast
5:12 AM 73.4 °F - 73.4 °F 100% 30.02 in 8.0 mi ESE 2.3 mph - N/A   Overcast
5:14 AM 73.4 °F - 73.4 °F 100% 30.02 in 9.0 mi ESE 3.5 mph - N/A   Overcast
5:18 AM 73.4 °F - 73.4 °F 100% 30.02 in 8.0 mi East 3.5 mph - N/A   Overcast
5:20 AM 73.4 °F - 73.4 °F 100% 30.02 in 6.0 mi East 3.5 mph - N/A   Overcast
5:22 AM 73.4 °F - 73.4 °F 100% 30.02 in 4.0 mi East 2.3 mph - N/A   Overcast
5:26 AM 73.4 °F - 73.4 °F 100% 30.02 in 2.5 mi East 3.5 mph - N/A   Overcast
5:28 AM 73.4 °F - 73.4 °F 100% 30.02 in 1.8 mi East 3.5 mph - N/A   Overcast
5:32 AM 73.4 °F - 73.4 °F 100% 30.02 in 1.2 mi East 2.3 mph - N/A   Overcast
5:36 AM 73.4 °F - 73.4 °F 100% 30.02 in 1.0 mi East 1.2 mph - N/A   Mist
5:38 AM 73.4 °F - 73.4 °F 100% 30.02 in 1.0 mi NE 1.2 mph - N/A   Mist
5:40 AM 73.4 °F - 73.4 °F 100% 30.02 in 1.2 mi East 3.5 mph - N/A   Overcast
5:46 AM 73.4 °F - 73.4 °F 100% 30.02 in 1.5 mi East 2.3 mph - N/A   Overcast
5:50 AM 73.4 °F - 73.4 °F 100% 30.02 in 2.5 mi East 2.3 mph - N/A   Overcast
5:52 AM 73.4 °F - 73.4 °F 100% 30.02 in 3.0 mi East 2.3 mph - N/A   Overcast
5:54 AM 73.4 °F - 73.4 °F 100% 30.02 in 3.0 mi East 2.3 mph - N/A   Overcast
5:58 AM 73.0 °F - 73.0 °F 100% 30.02 in 4.0 mi ESE 3.5 mph - N/A   Overcast
6:02 AM 73.4 °F - 73.4 °F 100% 30.02 in 5.0 mi East 3.5 mph - N/A   Overcast
6:04 AM 73.4 °F - 73.4 °F 100% 30.02 in 6.0 mi East 3.5 mph - N/A   Overcast
6:08 AM 73.4 °F - 73.4 °F 100% 30.02 in 7.0 mi ESE 3.5 mph - N/A   Overcast
6:10 AM 73.4 °F - 73.4 °F 100% 30.03 in 7.0 mi ESE 3.5 mph - N/A   Overcast
6:24 AM 73.4 °F - 73.4 °F 100% 30.03 in 8.0 mi ESE 5.8 mph - N/A   Overcast
6:26 AM 73.4 °F - 73.4 °F 100% 30.03 in 9.0 mi ESE 4.6 mph - N/A   Overcast
6:58 AM 73.2 °F - 73.2 °F 100% 30.06 in 10.0 mi SSE 8.1 mph - N/A   Overcast
7:04 AM 73.4 °F - 73.4 °F 100% 30.06 in 10.0 mi SSE 8.1 mph - N/A   Overcast
7:23 AM 73.4 °F - 73.4 °F 100% 30.06 in 10.0 mi SSE 6.9 mph - N/A Rain Light Rain
7:27 AM 73.4 °F - 73.4 °F 100% 30.06 in 10.0 mi SE 5.8 mph - N/A Rain Light Rain
7:32 AM 73.4 °F - 73.4 °F 100% 30.05 in 10.0 mi SE 3.5 mph - N/A   Overcast
7:48 AM 73.4 °F - 73.4 °F 100% 30.06 in 10.0 mi SSE 3.5 mph - N/A   Overcast
7:58 AM 73.2 °F - 73.2 °F 100% 30.06 in 10.0 mi SSE 5.8 mph - 0.01 in   Overcast
7:59 AM 73.4 °F - 73.4 °F 100% 30.06 in 10.0 mi SSE 5.8 mph - N/A Rain Light Rain
8:35 AM 73.4 °F - 73.4 °F 100% 30.08 in 7.0 mi South 6.9 mph - N/A Rain Light Rain
8:45 AM 73.4 °F - 73.4 °F 100% 30.08 in 7.0 mi South 6.9 mph - N/A Rain Light Rain
8:55 AM 73.4 °F - 73.4 °F 100% 30.08 in 2.5 mi SSW 5.8 mph - N/A Rain Heavy Rain
8:57 AM 73.4 °F - 73.4 °F 100% 30.08 in 2.5 mi South 5.8 mph - N/A Rain Heavy Rain
8:58 AM 73.4 °F - 73.4 °F 100% 30.09 in 2.5 mi South 6.9 mph - 0.14 in Rain Rain
9:04 AM 73.4 °F - 73.4 °F 100% 30.08 in 3.0 mi South 5.8 mph - N/A Rain Rain
9:06 AM 73.4 °F - 73.4 °F 100% 30.08 in 5.0 mi SSE 3.5 mph - N/A Rain Rain
9:10 AM 73.4 °F - 73.4 °F 100% 30.07 in 6.0 mi ENE 1.2 mph - N/A Rain Light Rain
9:14 AM 73.4 °F - 73.4 °F 100% 30.07 in 7.0 mi East 2.3 mph - N/A Rain Light Rain
9:20 AM 73.4 °F - 73.4 °F 100% 30.07 in 8.0 mi East 1.2 mph - N/A Rain Light Rain
9:26 AM 73.4 °F - 73.4 °F 100% 30.07 in 9.0 mi ESE 2.3 mph - N/A Rain Light Rain
9:30 AM 73.4 °F - 73.4 °F 100% 30.07 in 10.0 mi SE 2.3 mph - N/A Rain Light Rain
9:38 AM 73.4 °F - 73.4 °F 100% 30.07 in 10.0 mi SE 3.5 mph - N/A Rain Light Rain
9:52 AM 73.4 °F - 73.4 °F 100% 30.07 in 10.0 mi South 4.6 mph - N/A Rain Light Rain
9:58 AM 73.4 °F - 73.4 °F 100% 30.07 in 10.0 mi SW 2.3 mph - 0.08 in Rain Light Rain
10:00 AM 73.4 °F - 73.4 °F 100% 30.07 in 10.0 mi SW 2.3 mph - N/A Rain Light Rain
10:02 AM 73.4 °F - 73.4 °F 100% 30.06 in 10.0 mi WSW 3.5 mph - N/A Rain Light Rain
10:06 AM 73.4 °F - 73.4 °F 100% 30.06 in 10.0 mi West 2.3 mph - N/A Rain Light Rain
10:35 AM 75.2 °F - 75.2 °F 100% 30.06 in 10.0 mi Calm Calm - N/A   Overcast
10:38 AM 75.2 °F - 75.2 °F 100% 30.06 in 10.0 mi Calm Calm - N/A   Overcast
10:40 AM 75.2 °F - 75.2 °F 100% 30.06 in 10.0 mi Calm Calm - N/A   Overcast
10:44 AM 75.2 °F - 75.2 °F 100% 30.06 in 10.0 mi Calm Calm - N/A   Mostly Cloudy
10:46 AM 75.2 °F - 75.2 °F 100% 30.07 in 10.0 mi North - - N/A   Overcast
10:47 AM 75.2 °F - 75.2 °F 100% 30.07 in 10.0 mi Variable 1.2 mph - N/A   Overcast
10:49 AM 75.2 °F - 75.2 °F 100% 30.07 in 10.0 mi South 4.6 mph - N/A   Mostly Cloudy
10:56 AM 75.2 °F - 73.4 °F 94% 30.07 in 10.0 mi East 3.5 mph - N/A   Mostly Cloudy
10:58 AM 77.0 °F - 73.4 °F 89% 30.07 in 10.0 mi East 3.5 mph - 0.01 in   Mostly Cloudy
11:04 AM 77.0 °F - 73.4 °F 89% 30.07 in 10.0 mi Variable 3.5 mph - N/A   Mostly Cloudy
11:58 AM 76.8 °F - 73.4 °F 89% 30.09 in 10.0 mi East 5.8 mph - N/A   Mostly Cloudy
12:58 PM 78.8 °F - 73.6 °F 84% 30.07 in 10.0 mi East 5.8 mph - 0.01 in   Mostly Cloudy
1:58 PM 80.4 °F 85.3 °F 74.1 °F 81% 30.06 in 10.0 mi East 5.8 mph - N/A   Mostly Cloudy
2:58 PM 81.3 °F 86.8 °F 73.9 °F 78% 30.05 in 10.0 mi East 4.6 mph - N/A   Mostly Cloudy
3:58 PM 82.8 °F 89.2 °F 73.9 °F 75% 30.03 in 10.0 mi East 5.8 mph - N/A   Mostly Cloudy
4:58 PM 84.4 °F 92.0 °F 74.7 °F 72% 30.02 in 10.0 mi East 8.1 mph - N/A   Scattered Clouds
5:33 PM 82.4 °F 89.5 °F 75.2 °F 79% 30.03 in 10.0 mi East 4.6 mph - N/A Rain Light Rain
5:48 PM 80.6 °F 86.2 °F 75.2 °F 84% 30.03 in 10.0 mi ENE 3.5 mph - N/A   Partly Cloudy
5:52 PM 80.6 °F 86.2 °F 75.2 °F 84% 30.03 in 10.0 mi ENE 3.5 mph - N/A Rain Light Rain
5:58 PM 81.1 °F 87.8 °F 76.1 °F 85% 30.03 in 10.0 mi ENE 3.5 mph - 0.00 in Rain , Thunderstorm Light Rain
6:04 PM 80.6 °F 86.2 °F 75.2 °F 84% 30.03 in 10.0 mi East 4.6 mph - N/A Thunderstorm Partly Cloudy
6:37 PM 80.6 °F 85.4 °F 73.4 °F 79% 30.06 in 7.0 mi WNW 23.0 mph 28.8 mph N/A Rain , Thunderstorm Light Rain
6:45 PM 75.2 °F - 71.6 °F 89% 30.08 in 1.2 mi West 15.0 mph 28.8 mph N/A Rain , Thunderstorm Rain
6:47 PM 75.2 °F - 71.6 °F 89% 30.08 in 0.5 mi West 16.1 mph 28.8 mph N/A Fog , Rain , Thunderstorm Heavy Rain
6:55 PM 73.4 °F - 71.6 °F 94% 30.07 in 0.8 mi WNW 11.5 mph - N/A Rain , Thunderstorm Light Rain
6:57 PM 73.4 °F - 71.6 °F 94% 30.07 in 2.0 mi WNW 12.7 mph - N/A Rain , Thunderstorm Light Rain
6:58 PM 73.4 °F - 71.6 °F 94% 30.07 in 2.0 mi WNW 12.7 mph - 0.18 in Rain , Thunderstorm Light Rain
7:00 PM 73.4 °F - 71.6 °F 94% 30.07 in 7.0 mi WNW 11.5 mph - N/A Rain , Thunderstorm Light Rain
7:18 PM 71.6 °F - 71.6 °F 100% 30.09 in 10.0 mi WNW 5.8 mph - N/A   Scattered Clouds
7:45 PM 73.4 °F - 71.6 °F 94% 30.09 in 10.0 mi North 4.6 mph - N/A Rain Light Rain
7:58 PM 72.5 °F - 71.6 °F 97% 30.09 in 10.0 mi NNW 3.5 mph - 0.00 in Rain Light Rain
8:03 PM 71.6 °F - 71.6 °F 100% 30.09 in 10.0 mi North 2.3 mph - N/A   Clear
8:21 PM 71.6 °F - 71.6 °F 100% 30.10 in 10.0 mi North 2.3 mph - N/A   Mostly Cloudy
8:22 PM 71.6 °F - 71.6 °F 100% 30.10 in 10.0 mi NNW 2.3 mph - N/A   Mostly Cloudy
8:32 PM 71.6 °F - 71.6 °F 100% 30.10 in 10.0 mi Variable 1.2 mph - N/A   Mostly Cloudy
8:35 PM 71.6 °F - 71.6 °F 100% 30.09 in 10.0 mi North 3.5 mph - N/A Rain Light Rain
8:58 PM 72.3 °F - 72.0 °F 99% 30.10 in 10.0 mi North 2.3 mph - 0.01 in Rain Light Rain
9:04 PM 71.6 °F - 71.6 °F 100% 30.10 in 10.0 mi ENE 2.3 mph - N/A Rain Light Rain
9:07 PM 71.6 °F - 71.6 °F 100% 30.10 in 10.0 mi East 3.5 mph - N/A   Scattered Clouds
9:44 PM 71.6 °F - 71.6 °F 100% 30.11 in 10.0 mi NE 1.2 mph - N/A Rain Light Rain
9:58 PM 72.1 °F - 71.8 °F 99% 30.12 in 10.0 mi East 2.3 mph - 0.00 in Rain Light Rain
10:01 PM 71.6 °F - 71.6 °F 100% 30.12 in 10.0 mi East 4.6 mph - N/A   Clear
10:22 PM 71.6 °F - 71.6 °F 100% 30.11 in 10.0 mi ENE 3.5 mph - N/A   Partly Cloudy
10:36 PM 71.6 °F - 71.6 °F 100% 30.11 in 10.0 mi ESE 5.8 mph - N/A   Mostly Cloudy
10:38 PM 71.6 °F - 71.6 °F 100% 30.11 in 10.0 mi ESE 3.5 mph - N/A   Mostly Cloudy
10:58 PM 71.6 °F - 71.2 °F 99% 30.12 in 10.0 mi ESE 5.8 mph - 0.01 in   Mostly Cloudy
11:02 PM 71.6 °F - 71.6 °F 100% 30.12 in 10.0 mi East 5.8 mph - N/A   Mostly Cloudy
11:58 PM 71.2 °F - 70.9 °F 99% 30.12 in 10.0 mi ESE 4.6 mph - N/A   Clear